Minchumina, AK

10:16 AM AKDT on April 28, 2017 (GMT -0800)
Minchumina

Weather History for PAMH - July, 2013

Change the Weather History Date:

Thursday, July 25, 2013

  Actual Average Record
Temperature  
Mean Temperature 63 °F -  
Max Temperature 73 °F 62 °F 77 °F (2005)
Min Temperature 53 °F 48 °F 46 °F (2000)
Degree Days  
Heating Degree Days 2    
Growing Degree Days 13 (Base 50)    
Moisture  
Dew Point 48 °F    
Average Humidity 63    
Maximum Humidity 82    
Minimum Humidity 33    
Precipitation  
Precipitation 0.00 in - - ()
Sea Level Pressure  
Sea Level Pressure 30.06 in    
Wind  
Wind Speed 1 mph (South)    
Max Wind Speed 9 mph    
Max Gust Speed -    
Visibility 10 miles    
Events      
Averages and records for this station are not official NWS values.
T = Trace of Precipitation, MM = Missing Value Source: NWS Daily Summary

Daily Weather History Graph

Daily Weather History Graph

Search for Another Location

Airport or City:

Trip Planner

Search our weather history database for the weather conditions in past years. The results will help you decide how hot, cold, wet, or windy it might be!

Date:

Astronomy

Jul. 25, 2013 Rise Set
Actual Time 4:58 AM AKDT 11:30 PM AKDT
Civil Twilight 3:05 AM AKDT 1:17 AM AKDT
Nautical Twilight Sun does not set Sun does not set
Astronomical Twilight Sun does not set Sun does not set
Moon 11:14 PM AKDT (7/25) 10:30 AM AKDT (7/25)
Length of Visible Light 22h 12m
Length of Day
18h 32m
Waning Gibbous, 87% of the Moon is Illuminated
Jul 25
Waning Gibbous
Jul 29
Last Quarter
Aug 6
New
Aug 14
First Quarter
Aug 20
Full

Hourly Weather History & Observations

Time (AKDT) Temp. Dew Point Humidity Pressure Visibility Wind Dir Wind Speed Gust Speed Precip Events Conditions
12:16 AM 60.8 °F 53.6 °F 77% 30.03 in 10.0 mi Calm Calm - N/A   Overcast
12:36 AM 60.8 °F 53.6 °F 77% 30.03 in 10.0 mi Calm Calm - N/A   Overcast
12:56 AM 60.8 °F 51.8 °F 72% 30.04 in 10.0 mi Calm Calm - N/A   Overcast
1:16 AM 60.8 °F 51.8 °F 72% 30.04 in 10.0 mi Calm Calm - N/A   Overcast
1:36 AM 60.8 °F 51.8 °F 72% 30.05 in 10.0 mi Calm Calm - N/A   Overcast
1:56 AM 59.0 °F 51.8 °F 77% 30.05 in 10.0 mi Calm Calm - N/A   Overcast
2:16 AM 59.0 °F 51.8 °F 77% 30.05 in 10.0 mi Calm Calm - N/A   Overcast
2:36 AM 59.0 °F 51.8 °F 77% 30.05 in 10.0 mi Calm Calm - N/A   Overcast
2:56 AM 57.2 °F 51.8 °F 82% 30.05 in 10.0 mi Calm Calm - N/A   Overcast
3:16 AM 57.2 °F 51.8 °F 82% 30.05 in 10.0 mi Calm Calm - N/A   Overcast
3:36 AM 57.2 °F 51.8 °F 82% 30.05 in 10.0 mi Calm Calm - N/A   Overcast
3:56 AM 57.2 °F 51.8 °F 82% 30.05 in 10.0 mi Calm Calm - N/A   Overcast
4:16 AM 57.2 °F 51.8 °F 82% 30.05 in 10.0 mi Calm Calm - N/A   Overcast
4:36 AM 55.4 °F 50.0 °F 82% 30.06 in 10.0 mi Calm Calm - N/A   Overcast
4:56 AM 55.4 °F 50.0 °F 82% 30.06 in 10.0 mi Calm Calm - N/A   Overcast
5:16 AM 55.4 °F 50.0 °F 82% 30.06 in 10.0 mi Calm Calm - N/A   Overcast
5:36 AM 55.4 °F 48.2 °F 77% 30.06 in 10.0 mi Calm Calm - N/A   Overcast
5:56 AM 55.4 °F 48.2 °F 77% 30.06 in 10.0 mi Calm Calm - N/A   Overcast
6:16 AM 55.4 °F 48.2 °F 77% 30.06 in 10.0 mi Calm Calm - N/A   Overcast
6:36 AM 55.4 °F 48.2 °F 77% 30.06 in 10.0 mi Calm Calm - N/A   Overcast
6:56 AM 53.6 °F 48.2 °F 82% 30.06 in 10.0 mi Calm Calm - N/A   Overcast
7:16 AM 55.4 °F 48.2 °F 77% 30.06 in 10.0 mi Calm Calm - N/A   Overcast
7:36 AM 53.6 °F 48.2 °F 82% 30.06 in 10.0 mi Calm Calm - N/A   Overcast
7:56 AM 53.6 °F 48.2 °F 82% 30.06 in 10.0 mi Calm Calm - N/A   Overcast
8:16 AM 53.6 °F 48.2 °F 82% 30.07 in 10.0 mi Calm Calm - N/A   Overcast
8:36 AM 53.6 °F 48.2 °F 82% 30.07 in 10.0 mi Calm Calm - N/A   Overcast
8:56 AM 53.6 °F 48.2 °F 82% 30.07 in 10.0 mi Calm Calm - N/A   Overcast
9:16 AM 53.6 °F 48.2 °F 82% 30.07 in 10.0 mi Calm Calm - N/A   Overcast
9:36 AM 53.6 °F 48.2 °F 82% 30.07 in 10.0 mi Calm Calm - N/A   Overcast
9:56 AM 55.4 °F 48.2 °F 77% 30.07 in 10.0 mi Calm Calm - N/A   Overcast
10:16 AM 55.4 °F 48.2 °F 77% 30.07 in 10.0 mi Calm Calm - N/A   Overcast
10:36 AM 55.4 °F 48.2 °F 77% 30.07 in 10.0 mi Calm Calm - N/A   Overcast
10:56 AM 57.2 °F 50.0 °F 77% 30.07 in 10.0 mi Calm Calm - N/A   Overcast
11:16 AM 57.2 °F 48.2 °F 72% 30.07 in 10.0 mi Calm Calm - N/A   Mostly Cloudy
11:36 AM 59.0 °F 48.2 °F 67% 30.06 in 10.0 mi Calm Calm - N/A   Mostly Cloudy
11:56 AM 59.0 °F 48.2 °F 67% 30.06 in 10.0 mi ESE 4.6 mph - N/A   Scattered Clouds
12:16 PM 60.8 °F 48.2 °F 63% 30.06 in 10.0 mi SSE 4.6 mph - N/A   Clear
12:36 PM 60.8 °F 48.2 °F 63% 30.06 in 10.0 mi SE 5.8 mph - N/A   Scattered Clouds
12:56 PM 60.8 °F 46.4 °F 59% 30.07 in 10.0 mi ESE 3.5 mph - N/A   Overcast
1:16 PM 62.6 °F 48.2 °F 59% 30.06 in 10.0 mi South 3.5 mph - N/A   Mostly Cloudy
1:36 PM 62.6 °F 48.2 °F 59% 30.07 in 10.0 mi SE 4.6 mph - N/A   Scattered Clouds
1:56 PM 64.4 °F 48.2 °F 56% 30.06 in 10.0 mi South 5.8 mph - N/A   Partly Cloudy
2:16 PM 66.2 °F 50.0 °F 56% 30.06 in 10.0 mi SSE 4.6 mph - N/A   Clear
2:36 PM 66.2 °F 48.2 °F 52% 30.06 in 10.0 mi South 4.6 mph - N/A   Clear
2:56 PM 68.0 °F 46.4 °F 46% 30.06 in 10.0 mi SW 3.5 mph - N/A   Clear
3:16 PM 69.8 °F 44.6 °F 40% 30.06 in 7.0 mi Calm Calm - N/A   Clear
3:36 PM 69.8 °F 41.0 °F 35% 30.06 in 10.0 mi Calm Calm - N/A   Clear
3:56 PM 69.8 °F 41.0 °F 35% 30.06 in 10.0 mi Calm Calm - N/A   Clear
4:16 PM 71.6 °F 42.8 °F 35% 30.05 in 10.0 mi Calm Calm - N/A   Clear
4:36 PM 71.6 °F 42.8 °F 35% 30.05 in 10.0 mi Calm Calm - N/A   Clear
4:56 PM 71.6 °F 42.8 °F 35% 30.05 in 10.0 mi Calm Calm - N/A   Clear
5:16 PM 71.6 °F 42.8 °F 35% 30.05 in 10.0 mi Calm Calm - N/A   Clear
5:36 PM 71.6 °F 42.8 °F 35% 30.05 in 10.0 mi Calm Calm - N/A   Clear
5:56 PM 73.4 °F 42.8 °F 33% 30.05 in 4.0 mi Calm Calm - N/A   Clear
6:16 PM 73.4 °F 42.8 °F 33% 30.05 in 10.0 mi SSE 3.5 mph - N/A   Clear
6:36 PM 71.6 °F 42.8 °F 35% 30.05 in 10.0 mi WSW 3.5 mph - N/A   Clear
6:56 PM 71.6 °F 44.6 °F 38% 30.05 in 10.0 mi Calm Calm - N/A   Clear
7:16 PM 71.6 °F 42.8 °F 35% 30.05 in 10.0 mi South 5.8 mph - N/A   Clear
7:36 PM 71.6 °F 46.4 °F 41% 30.05 in 10.0 mi South 5.8 mph - N/A   Clear
7:56 PM 71.6 °F 46.4 °F 41% 30.05 in 10.0 mi South 5.8 mph - N/A   Clear
8:16 PM 71.6 °F 48.2 °F 43% 30.05 in 10.0 mi SSE 5.8 mph - N/A   Clear
8:36 PM 69.8 °F 48.2 °F 46% 30.05 in 10.0 mi South 8.1 mph - N/A   Partly Cloudy
8:56 PM 69.8 °F 50.0 °F 49% 30.05 in 10.0 mi SSW 9.2 mph - N/A   Partly Cloudy
9:16 PM 69.8 °F 51.8 °F 53% 30.06 in 10.0 mi SW 6.9 mph - N/A   Partly Cloudy
9:36 PM 68.0 °F 46.4 °F 46% 30.06 in 10.0 mi Calm Calm - N/A   Clear
9:56 PM 64.4 °F 46.4 °F 52% 30.06 in 10.0 mi Calm Calm - N/A   Clear
10:16 PM 64.4 °F 44.6 °F 49% 30.07 in 10.0 mi Calm Calm - N/A   Clear
10:36 PM 64.4 °F 46.4 °F 52% 30.07 in 10.0 mi Calm Calm - N/A   Clear
10:56 PM 62.6 °F 48.2 °F 59% 30.08 in 10.0 mi Calm Calm - N/A   Clear
11:16 PM 62.6 °F 48.2 °F 59% 30.08 in 10.0 mi Calm Calm - N/A   Clear
11:36 PM 60.8 °F 48.2 °F 63% 30.09 in 10.0 mi Calm Calm - N/A   Clear
11:56 PM 60.8 °F 48.2 °F 63% 30.09 in 10.0 mi Calm Calm - N/A   Clear